Wind_Speed
25 16 18 15 13 12 17 19 28 32 32 36 42 45 45 47 47 45 42 40 42 43 48 45 45 47 48 50 46 43 42 43 43 28 32 33 33 28 25 28 30 33 36
31 26 25 16 14 14 22 24 27 33 37 42 48 51 49 49 47 43 41 41 41 40 42 44 44 46 50 50 47 46 45 44 44 34 34 34 32 31 34 34 32 31 30
39 34 32 24 22 21 26 29 32 38 43 49 53 57 53 50 44 41 44 45 46 46 46 46 46 47 49 51 51 51 50 49 47 44 36 39 40 38 37 34 36 29 30
42 39 46 25 24 31 36 36 41 43 48 54 62 56 48 43 43 45 45 46 47 48 48 49 49 50 51 51 52 52 52 53 50 47 40 41 42 42 38 36 36 34 30
44 45 39 35 28 35 31 36 44 47 54 57 54 47 47 46 45 45 47 49 50 50 50 50 51 51 52 53 52 51 50 49 46 45 44 43 43 44 43 40 36 33 27
47 51 55 41 34 30 37 45 48 52 56 59 53 48 47 48 49 50 50 51 52 52 52 51 51 50 49 48 52 49 46 43 43 44 45 42 44 49 47 41 36 32 26
41 43 31 44 30 34 43 51 55 58 53 48 46 49 49 49 51 53 53 53 52 51 49 48 47 42 42 45 40 38 39 40 43 45 43 39 40 46 45 39 36 29 26
37 30 27 32 38 45 53 56 56 50 52 49 49 50 50 51 52 53 53 52 51 49 48 47 43 40 42 39 37 35 36 39 41 42 38 37 35 39 32 33 33 29 28
41 35 40 41 48 54 56 56 52 49 52 49 49 50 51 52 51 51 50 49 46 45 44 41 40 41 39 37 34 35 37 39 38 37 36 37 40 35 38 38 35 31 28
43 44 49 55 58 58 57 59 53 49 48 48 49 50 51 49 49 48 47 46 43 42 40 39 40 41 37 35 33 34 36 37 37 38 36 37 38 40 43 40 38 34 29
50 53 58 60 57 50 54 52 46 46 48 49 50 50 48 46 45 44 43 45 42 40 39 38 38 38 37 35 34 34 35 35 35 32 34 36 36 32 40 39 36 32 30
55 59 56 54 53 56 53 45 46 47 48 48 47 46 43 41 40 41 41 42 43 40 39 38 38 37 34 33 33 35 35 32 32 33 34 32 33 28 26 30 33 32 29
58 53 58 57 54 49 45 46 47 47 45 45 43 41 40 39 39 42 43 42 42 40 38 36 36 36 34 32 33 33 33 29 31 30 31 37 33 28 30 33 33 31 31
56 58 52 48 48 46 45 45 43 42 42 41 41 41 41 43 44 44 44 42 39 37 36 35 35 35 33 31 30 31 29 30 32 32 34 38 34 34 35 36 34 32 32
52 50 48 46 43 41 41 41 40 40 39 39 39 40 43 42 38 37 41 43 40 36 34 34 32 32 32 32 30 28 28 29 26 41 38 39 40 35 39 37 36 36 35
45 39 41 41 40 39 40 40 38 37 36 37 38 39 38 38 39 37 36 37 35 33 29 27 26 28 30 29 27 25 29 30 32 25 43 51 50 41 40 35 34 34 34
38 37 39 39 39 39 35 35 35 35 36 37 37 33 32 35 33 31 31 27 25 26 25 23 23 23 24 23 20 21 21 21 24 24 31 30 20 42 33 33 34 36 36
38 38 35 32 32 35 34 32 33 33 32 33 30 28 29 27 26 29 33 32 29 26 21 19 18 17 18 17 15 17 19 17 12 18 23 27 19 23 37 29 36 42 39
34 32 31 33 35 33 32 32 33 32 31 27 26 25 22 21 24 27 31 33 32 24 18 15 13 10 8 10 13 17 21 25 17 16 20 19 20 21 20 20 23 29 34
36 32 32 31 31 30 29 31 31 27 25 23 22 21 19 21 22 24 27 30 31 26 17 15 12 8 5 6 11 15 18 21 22 19 21 22 22 23 26 25 26 30 31
34 33 32 31 28 27 30 29 27 22 23 22 21 17 17 19 20 22 21 23 25 26 23 18 14 11 8 8 10 8 5 11 20 22 23 23 25 25 23 25 28 31 32
33 36 32 27 27 27 26 24 23 21 21 21 16 15 16 15 19 19 16 17 17 17 22 20 15 13 16 12 8 9 8 5 2 4 8 10 12 16 18 22 26 28 30
30 33 28 26 25 23 24 24 25 20 19 16 16 13 13 15 16 16 14 14 15 13 12 13 14 15 15 13 9 5 4 5 5 5 4 2 2 2 2 4 6 9 13
29 26 24 23 21 21 23 26 21 17 15 15 12 12 14 15 15 16 16 15 14 12 10 9 10 8 10 10 9 9 8 6 6 7 7 6 6 6 7 8 9 10 11
28 26 24 22 22 23 26 23 19 13 12 12 10 12 14 14 14 16 15 14 13 10 8 9 9 8 8 9 9 9 10 10 10 10 10 10 10 11 12 13 14 15 17
27 26 25 25 22 20 19 19 11 10 12 12 11 14 15 14 14 13 13 13 10 8 7 7 8 7 6 6 6 8 10 11 11 12 13 13 13 15 16 18 19 21 23
Wind_Direction
281 285 273 274 280 300 310 299 305 312 311 310 315 309 307 309 309 303 296 292 289 286 287 277 285 284 288 291 293 292 288 288 290 281 273 268 268 262 244 265 277 283 285
279 273 279 249 265 279 300 300 306 309 311 314 312 309 304 305 306 299 295 293 289 285 284 283 283 282 284 287 288 287 287 286 285 281 268 264 262 255 258 265 271 279 288
274 275 275 254 266 270 286 295 307 311 311 306 307 310 304 303 299 295 295 293 291 289 287 285 285 285 285 285 284 283 283 282 280 276 265 255 255 253 253 258 263 273 282
270 278 280 262 283 285 292 297 300 306 309 308 308 306 302 299 296 296 295 293 292 291 289 287 285 284 284 281 280 280 281 281 279 275 269 260 253 253 255 256 261 265 272
275 270 272 289 292 289 292 298 307 307 308 307 310 306 301 300 299 298 296 295 293 291 289 287 285 284 284 283 281 277 273 274 276 274 266 261 253 250 249 248 254 259 269
258 274 269 269 314 286 293 305 304 304 307 309 303 298 299 300 298 296 293 291 290 290 288 287 284 285 284 281 277 273 270 273 274 271 268 266 267 257 249 238 249 253 263
250 291 294 284 288 281 291 298 303 309 308 304 300 300 301 300 299 297 296 294 293 291 290 289 288 286 283 282 277 270 273 273 270 268 269 274 272 283 267 222 242 247 255
281 313 298 286 292 296 302 305 307 307 305 302 303 303 301 301 299 298 297 297 295 295 294 293 291 285 285 280 277 276 276 274 269 267 269 272 273 278 230 236 241 243 251
299 297 298 302 304 305 305 311 304 307 306 304 303 302 302 300 299 298 299 298 297 295 293 290 287 283 284 277 273 273 274 273 271 267 267 267 267 271 279 232 245 246 247
297 303 308 306 304 304 306 307 301 304 304 303 302 302 300 299 298 299 299 298 296 294 292 291 286 282 282 277 272 273 276 270 266 266 267 268 271 268 256 236 240 244 244
300 306 304 303 303 303 306 305 302 301 303 304 303 302 302 300 301 301 301 298 295 294 294 291 289 286 282 279 274 273 276 270 266 270 264 265 270 265 243 214 234 241 243
302 302 304 305 305 303 303 302 301 301 303 303 303 303 302 303 304 304 301 299 299 297 293 290 286 284 281 276 273 273 274 269 261 261 265 258 269 226 216 227 231 236 238
302 303 304 300 299 298 299 300 302 302 302 302 303 302 304 306 305 303 303 302 300 297 293 289 285 282 280 278 272 272 272 270 259 253 260 258 257 237 234 230 231 235 239
298 298 296 296 296 298 301 302 301 301 301 302 304 307 309 311 309 309 311 309 305 298 292 285 280 276 275 274 273 271 267 258 254 248 250 251 249 235 233 232 232 233 236
297 296 296 295 298 300 300 299 299 300 302 304 307 310 310 311 313 310 307 308 307 304 296 288 282 277 273 271 270 270 257 249 285 253 246 241 248 243 229 228 231 236 239
296 297 301 301 296 296 299 299 298 299 301 305 309 309 311 317 320 321 313 311 310 310 305 292 283 275 273 271 270 267 247 255 266 268 226 224 220 225 221 228 235 234 237
297 298 300 295 294 299 298 298 298 299 306 309 308 313 317 319 327 332 342 332 327 320 313 308 289 283 275 271 265 259 263 262 262 257 251 227 250 216 249 227 236 238 237
295 294 293 297 301 299 297 299 301 306 306 306 310 312 318 323 331 337 343 349 344 336 329 330 317 298 288 276 261 248 251 265 261 240 240 258 258 258 235 248 250 255 252
292 293 296 299 301 301 300 302 306 308 307 310 311 312 315 321 326 335 337 346 348 342 341 345 327 324 312 270 232 255 250 250 256 258 268 266 266 264 258 261 258 238 250
296 298 297 299 300 301 303 304 309 307 309 311 314 315 318 321 327 331 338 343 351 349 345 357 358 355 351 318 284 254 253 257 254 258 255 256 255 254 257 260 253 251 248
293 294 295 300 295 298 305 302 304 304 308 310 314 311 314 322 322 330 337 340 355 5 350 345 348 353 343 -0 345 342 297 238 240 248 250 252 251 253 252 246 241 244 250
296 289 293 291 292 300 300 304 301 301 304 306 301 304 311 317 319 325 332 336 345 3 17 10 2 340 330 320 315 313 331 345 65 216 222 231 238 242 247 250 252 254 257
290 287 288 284 288 293 289 298 290 293 301 298 298 304 310 313 320 321 324 327 336 340 353 6 18 26 33 43 44 35 41 23 12 9 17 0 323 301 290 283 272 270 268
291 282 283 281 282 286 281 290 283 293 296 301 300 307 313 312 320 322 318 315 319 322 330 346 351 357 2 12 19 21 23 28 24 22 24 29 22 11 353 339 331 323 316
284 277 276 274 274 274 272 282 287 285 291 291 291 298 301 302 310 314 320 316 315 313 321 333 349 3 11 8 10 17 18 14 10 6 1 355 347 337 324 316 309 303 296
277 273 275 276 271 275 265 273 263 269 278 277 289 299 299 299 302 307 316 320 325 330 331 338 351 2 13 16 4 352 345 343 342 342 343 340 333 326 319 313 306 300 294
Height
5923 5921 5920 5918 5917 5916 5915 5914 5912 5908 5905 5903 5899 5895 5892 5886 5881 5877 5874 5870 5868 5865 5863 5859 5859 5855 5852 5850 5847 5844 5843 5840 5838 5844 5838 5836 5835 5833 5830 5830 5831 5831 5828
5916 5916 5914 5910 5908 5907 5907 5905 5903 5901 5897 5893 5890 5884 5879 5874 5869 5865 5861 5858 5856 5854 5852 5848 5847 5844 5841 5838 5835 5833 5831 5829 5827 5830 5829 5826 5825 5824 5822 5821 5820 5821 5819
5908 5910 5909 5905 5901 5899 5898 5895 5892 5889 5885 5881 5876 5871 5865 5861 5857 5852 5849 5846 5843 5841 5838 5835 5833 5830 5827 5824 5821 5819 5818 5816 5814 5814 5817 5814 5813 5812 5812 5812 5813 5812 5810
5900 5899 5896 5894 5894 5893 5890 5887 5883 5879 5874 5869 5864 5856 5851 5848 5844 5840 5837 5833 5830 5826 5823 5820 5817 5814 5812 5809 5807 5805 5804 5801 5800 5801 5804 5802 5801 5801 5803 5804 5804 5803 5801
5890 5888 5886 5885 5884 5884 5879 5878 5872 5868 5863 5857 5849 5843 5841 5836 5831 5827 5823 5819 5816 5812 5808 5804 5801 5798 5795 5793 5791 5790 5788 5786 5787 5787 5789 5790 5790 5789 5790 5793 5794 5793 5792
5878 5878 5877 5873 5872 5873 5871 5866 5862 5856 5849 5842 5837 5833 5828 5822 5817 5813 5809 5805 5801 5797 5793 5788 5785 5782 5779 5776 5774 5774 5774 5773 5773 5773 5773 5776 5777 5775 5777 5781 5784 5784 5784
5864 5866 5863 5866 5864 5862 5859 5855 5848 5841 5834 5828 5824 5819 5813 5809 5804 5799 5794 5790 5786 5781 5776 5772 5769 5767 5764 5762 5760 5760 5760 5760 5760 5760 5761 5764 5764 5763 5759 5766 5773 5774 5775
5856 5855 5855 5856 5854 5851 5846 5840 5833 5826 5821 5815 5809 5803 5798 5793 5789 5784 5779 5774 5769 5764 5759 5757 5755 5753 5750 5748 5749 5748 5747 5747 5747 5747 5749 5751 5751 5752 5754 5757 5762 5764 5766
5845 5847 5846 5844 5841 5836 5831 5824 5819 5813 5806 5800 5795 5790 5785 5780 5776 5771 5765 5759 5754 5750 5746 5743 5741 5739 5738 5736 5737 5737 5735 5735 5735 5737 5738 5740 5739 5740 5744 5748 5752 5754 5756
5839 5835 5832 5829 5826 5821 5816 5812 5805 5798 5793 5788 5782 5777 5773 5769 5763 5757 5751 5745 5741 5738 5733 5730 5728 5726 5726 5725 5725 5724 5724 5725 5726 5726 5728 5728 5728 5729 5731 5736 5740 5744 5747
5826 5822 5821 5817 5812 5808 5804 5797 5790 5785 5780 5774 5770 5765 5759 5754 5748 5742 5736 5732 5728 5725 5721 5718 5716 5714 5714 5714 5713 5713 5713 5714 5715 5716 5717 5718 5717 5715 5717 5724 5731 5735 5739
5817 5813 5809 5804 5799 5795 5790 5785 5780 5774 5768 5763 5757 5752 5746 5741 5735 5729 5725 5720 5716 5713 5710 5706 5704 5703 5702 5702 5701 5702 5702 5703 5704 5706 5707 5708 5709 5709 5713 5719 5722 5726 5730
5804 5800 5796 5792 5787 5782 5777 5773 5767 5762 5757 5751 5746 5740 5735 5729 5725 5720 5714 5710 5705 5701 5698 5695 5693 5692 5691 5691 5690 5690 5692 5692 5693 5694 5697 5698 5701 5704 5708 5711 5714 5716 5720
5793 5788 5783 5779 5774 5769 5764 5759 5756 5751 5746 5741 5735 5730 5725 5720 5714 5708 5701 5697 5693 5689 5686 5683 5681 5680 5680 5680 5679 5680 5681 5681 5681 5682 5684 5687 5690 5695 5698 5701 5704 5707 5711
5780 5776 5771 5766 5761 5756 5752 5749 5745 5741 5737 5732 5727 5723 5717 5712 5705 5699 5693 5686 5682 5677 5675 5672 5670 5669 5669 5669 5669 5670 5670 5673 5673 5668 5671 5675 5677 5683 5687 5691 5694 5698 5702
5768 5764 5759 5754 5750 5746 5743 5739 5736 5732 5728 5724 5718 5714 5709 5701 5696 5691 5684 5677 5671 5667 5664 5661 5659 5658 5658 5658 5660 5661 5662 5663 5662 5661 5655 5659 5663 5671 5677 5683 5685 5689 5693
5756 5752 5748 5743 5740 5737 5734 5730 5727 5724 5720 5716 5711 5705 5699 5695 5690 5686 5678 5670 5664 5658 5655 5652 5650 5649 5649 5649 5652 5652 5652 5655 5655 5655 5658 5658 5660 5661 5669 5673 5677 5681 5684
5745 5741 5737 5733 5731 5728 5726 5722 5719 5716 5712 5707 5702 5698 5694 5690 5685 5680 5673 5665 5658 5652 5648 5645 5643 5642 5643 5643 5644 5646 5646 5647 5649 5647 5650 5655 5657 5658 5661 5666 5669 5672 5674
5735 5731 5729 5726 5724 5721 5719 5715 5711 5708 5704 5700 5696 5694 5690 5686 5681 5676 5670 5663 5657 5650 5645 5642 5640 5639 5638 5638 5640 5641 5641 5643 5645 5645 5645 5646 5648 5651 5653 5657 5659 5661 5664
5725 5723 5720 5718 5716 5713 5710 5708 5704 5700 5697 5694 5692 5688 5684 5680 5677 5673 5667 5661 5656 5649 5644 5641 5639 5637 5636 5636 5635 5636 5637 5636 5638 5639 5641 5642 5644 5646 5647 5650 5652 5654 5656
5717 5714 5712 5710 5708 5706 5704 5700 5697 5694 5692 5690 5687 5684 5680 5677 5673 5670 5666 5662 5657 5652 5645 5641 5640 5638 5637 5636 5636 5634 5631 5631 5632 5633 5634 5635 5637 5639 5640 5641 5643 5644 5647
5708 5705 5703 5702 5700 5698 5696 5694 5692 5690 5688 5685 5682 5679 5677 5674 5671 5668 5665 5661 5658 5654 5649 5644 5641 5639 5637 5636 5635 5634 5630 5629 5629 5629 5629 5630 5631 5632 5633 5634 5636 5637 5638
5700 5696 5694 5693 5692 5691 5690 5688 5687 5685 5683 5681 5678 5676 5674 5671 5668 5665 5663 5660 5657 5654 5651 5648 5645 5642 5639 5638 5636 5635 5632 5630 5630 5629 5628 5628 5629 5629 5630 5630 5631 5631 5632
5691 5688 5686 5686 5685 5685 5682 5683 5681 5679 5678 5677 5675 5673 5671 5668 5666 5663 5661 5658 5656 5653 5650 5648 5645 5643 5641 5639 5637 5637 5636 5635 5633 5631 5630 5630 5629 5629 5629 5629 5628 5628 5628
5681 5679 5678 5678 5678 5678 5678 5677 5676 5674 5674 5673 5671 5670 5668 5666 5663 5661 5658 5656 5653 5651 5650 5648 5647 5644 5642 5640 5639 5637 5636 5635 5634 5633 5631 5630 5629 5628 5628 5626 5625 5625 5623
5671 5671 5670 5670 5670 5670 5671 5671 5671 5670 5670 5669 5667 5666 5665 5663 5661 5659 5657 5655 5652 5650 5649 5648 5646 5645 5643 5642 5640 5639 5637 5636 5635 5633 5631 5630 5629 5627 5626 5625 5623 5621 5619